Weather History for 11150 - May, 2013

Change the Weather History Date:

Wednesday, May 8, 2013

  Actual Average Record
Temperature  
Mean Temperature 64 °F -  
Max Temperature 72 °F 66 °F - ()
Min Temperature 55 °F 48 °F - ()
Degree Days  
Heating Degree Days 2    
Growing Degree Days 14 (Base 50)    
Moisture  
Dew Point 56 °F    
Average Humidity 79    
Maximum Humidity 100    
Minimum Humidity 47    
Precipitation  
Precipitation 0.00 in 0.18 in - ()
Sea Level Pressure  
Sea Level Pressure 29.97 in    
Wind  
Wind Speed 3 mph ()    
Max Wind Speed 9 mph    
Max Gust Speed -    
Visibility 6.3 miles    
Events Rain    
T = Trace of Precipitation, MM = Missing Value Source: Averaged Metar Reports

Daily Weather History Graph

Daily Weather History Graph

Search for Another Location

Airport or City:

Trip Planner

Search our weather history database for the weather conditions in past years. The results will help you decide how hot, cold, wet, or windy it might be!

Date:

Astronomy

May. 08, 2013 Rise Set
Actual Time 5:39 AM CEST 8:30 PM CEST
Civil Twilight 5:03 AM CEST 9:06 PM CEST
Nautical Twilight 4:18 AM CEST 9:51 PM CEST
Astronomical Twilight 3:24 AM CEST 10:46 PM CEST
Moon 4:44 AM CEST (5/8) 7:07 PM CEST (5/8)
Length of Visible Light 16h 02m
Length of Day
14h 50m
Waning Crescent, 2% of the Moon is Illuminated
May 8
Waning Crescent
May 10
New
May 18
First Quarter
May 25
Full
May 31
Last Quarter

Hourly Weather History & Observations

Time (CEST) Temp. Dew Point Humidity Pressure Visibility Wind Dir Wind Speed Gust Speed Precip Events Conditions
12:20 AM 57.2 °F 57.2 °F 100% 30.01 in 5.0 mi Variable 2.3 mph - N/A   Mostly Cloudy
12:50 AM 57.2 °F 57.2 °F 100% 30.01 in 4.3 mi SE 3.5 mph - N/A   Mostly Cloudy
1:20 AM 57.2 °F 57.2 °F 100% 30.01 in 3.7 mi Variable 1.2 mph - N/A   Mostly Cloudy
1:50 AM 57.2 °F 57.2 °F 100% 30.01 in 3.7 mi SSE 3.5 mph - N/A   Mostly Cloudy
2:00 AM 57 °F 57 °F 100% 29.99 in 4 mi SSE 4.5 mph - -  
2:20 AM 57.2 °F 57.2 °F 100% 30.01 in 3.7 mi South 3.5 mph - N/A   Mostly Cloudy
2:50 AM 57.2 °F 57.2 °F 100% 29.98 in 3.7 mi SE 3.5 mph - N/A   Mostly Cloudy
3:20 AM 57.2 °F 57.2 °F 100% 29.98 in - South 3.5 mph - N/A   Overcast
3:50 AM 57.2 °F 55.4 °F 94% 29.98 in 2.8 mi Variable 2.3 mph - N/A   Mostly Cloudy
4:20 AM 57.2 °F 55.4 °F 94% 30.01 in 2.8 mi SE 2.3 mph - N/A   Mostly Cloudy
4:50 AM 57.2 °F 53.6 °F 88% 30.01 in 3.1 mi SW 3.5 mph - N/A   Mostly Cloudy
5:00 AM 56 °F 54 °F 92% 29.99 in 3 mi SW 4.5 mph - -   Mist
5:20 AM 55.4 °F 53.6 °F 94% 30.01 in 3.7 mi Variable 2.3 mph - N/A Rain Light Rain
5:50 AM 55.4 °F 53.6 °F 94% 30.01 in 3.1 mi Variable 1.2 mph - N/A Rain Light Rain
6:20 AM 55.4 °F 53.6 °F 94% 30.01 in 4.3 mi Variable 1.2 mph - N/A   Mostly Cloudy
6:50 AM 55.4 °F 55.4 °F 100% 30.01 in 6.2 mi SE 2.3 mph - N/A   Mostly Cloudy
7:20 AM 55.4 °F 55.4 °F 100% 30.01 in 6.2 mi Variable 1.2 mph - N/A   Mostly Cloudy
7:50 AM 57.2 °F 57.2 °F 100% 30.01 in 6.2 mi South 2.3 mph - N/A   Mostly Cloudy
8:00 AM 57 °F 57 °F 98% 30.02 in 6 mi South 2.2 mph - -   Partly Cloudy
8:20 AM 57.2 °F 57.2 °F 100% 30.01 in 6.2 mi Variable 1.2 mph - N/A   Mostly Cloudy
8:50 AM 59.0 °F 57.2 °F 94% 30.01 in 6.2 mi Variable 2.3 mph - N/A   Mostly Cloudy
9:20 AM 60.8 °F 57.2 °F 88% 30.01 in 6.2 mi Variable 2.3 mph - N/A   Mostly Cloudy
9:50 AM 60.8 °F 57.2 °F 88% 30.01 in 6.2 mi Variable 1.2 mph - N/A   Mostly Cloudy
10:20 AM 62.6 °F 55.4 °F 77% 30.01 in 6.2 mi Variable 1.2 mph - N/A   Mostly Cloudy
10:50 AM 62.6 °F 55.4 °F 77% 30.01 in 6.2 mi Variable 2.3 mph - N/A   Mostly Cloudy
11:00 AM 63 °F 55 °F 69% 30.00 in 9 mi 2.2 mph - -   Partly Cloudy
11:20 AM 64.4 °F 55.4 °F 73% 30.01 in 6.2 mi Variable 4.6 mph - N/A   Scattered Clouds
11:50 AM 64.4 °F 55.4 °F 73% 30.01 in 6.2 mi WSW 3.5 mph - N/A   Scattered Clouds
12:20 PM 66.2 °F 55.4 °F 68% 29.98 in 6.2 mi Variable 3.5 mph - N/A   Scattered Clouds
12:50 PM 68.0 °F 53.6 °F 60% 29.98 in 6.2 mi Variable 3.5 mph - N/A   Scattered Clouds
1:20 PM 68.0 °F 55.4 °F 64% 29.98 in 6.2 mi Variable 2.3 mph - N/A   Scattered Clouds
1:50 PM 69.8 °F 55.4 °F 60% 29.95 in 6.2 mi NNW 3.5 mph - N/A   Scattered Clouds
2:00 PM 70 °F 56 °F 50% 29.92 in 16 mi NNW 4.5 mph - -   Scattered Clouds
2:20 PM 69.8 °F 55.4 °F 60% 29.95 in 6.2 mi NNE 4.6 mph - N/A   Scattered Clouds
2:50 PM 71.6 °F 57.2 °F 60% 29.95 in 6.2 mi North 5.8 mph - N/A   Scattered Clouds
3:20 PM 71.6 °F 57.2 °F 60% 29.92 in 6.2 mi NNE 6.9 mph - N/A   Scattered Clouds
3:50 PM 69.8 °F 55.4 °F 60% 29.92 in 6.2 mi Variable 3.5 mph - N/A   Scattered Clouds
4:20 PM 69.8 °F 55.4 °F 60% 29.92 in 6.2 mi North 6.9 mph - N/A   Scattered Clouds
4:50 PM 71.6 °F 55.4 °F 57% 29.92 in 6.2 mi North 8.1 mph - N/A   Scattered Clouds
5:00 PM 72 °F 56 °F 47% 29.86 in 16 mi North 8.9 mph - -   Scattered Clouds
5:20 PM 71.6 °F 57.2 °F 60% 29.92 in 6.2 mi North 6.9 mph - N/A   Scattered Clouds
5:50 PM 71.6 °F 57.2 °F 60% 29.89 in 6.2 mi NNE 8.1 mph - N/A   Scattered Clouds
6:20 PM 71.6 °F 57.2 °F 60% 29.89 in 6.2 mi NNE 6.9 mph - N/A   Scattered Clouds
6:50 PM 71.6 °F 55.4 °F 57% 29.89 in 6.2 mi NE 4.6 mph - N/A   Partly Cloudy
7:20 PM 69.8 °F 55.4 °F 60% 29.89 in 6.2 mi North 4.6 mph - N/A   Partly Cloudy
7:50 PM 69.8 °F 57.2 °F 64% 29.92 in 6.2 mi NNE 6.9 mph - N/A   Partly Cloudy
8:00 PM 69 °F 57 °F 56% 29.87 in 19 mi NNE 6.7 mph - -   Scattered Clouds
8:20 PM 68.0 °F 57.2 °F 68% 29.92 in 6.2 mi NNE 5.8 mph - N/A   Partly Cloudy
8:50 PM 64.4 °F 57.2 °F 77% 29.92 in 6.2 mi Variable 1.2 mph - N/A   Partly Cloudy
9:20 PM 60.8 °F 57.2 °F 88% 29.95 in 6.2 mi West 3.5 mph - N/A   Partly Cloudy
9:50 PM 60.8 °F 55.4 °F 82% 29.95 in - South 4.6 mph - N/A   Clear
10:20 PM 59.0 °F 55.4 °F 88% 29.95 in - SSW 4.6 mph - N/A   Clear
10:50 PM 59.0 °F 55.4 °F 88% 29.95 in - SSE 4.6 mph - N/A   Clear
11:00 PM 60 °F 55 °F 77% 29.96 in 12 mi SSE 4.5 mph - -   Scattered Clouds
11:20 PM 59.0 °F 53.6 °F 82% 29.98 in - South 4.6 mph - N/A   Clear
11:50 PM 57.2 °F 53.6 °F 88% 29.98 in 6.2 mi South 4.6 mph - N/A   Partly Cloudy